Theta_e
338 339 339 335 334 326 324 322 327 334 334 337 335 334 332 329 330 330 326 318 312 308 312 316 318 319 319 320 320 321 322 322
337 337 338 338 334 329 326 326 325 334 333 336 335 333 330 331 332 330 325 313 307 307 310 313 315 317 315 320 320 321 321 320
335 335 337 334 332 329 326 325 324 328 333 336 334 333 332 331 333 330 320 312 308 307 308 310 312 313 317 319 320 320 320 320
333 334 335 335 329 329 328 327 324 325 335 335 333 333 332 332 332 329 317 311 310 309 310 310 314 316 317 318 321 320 320 319
333 332 332 333 331 330 327 324 326 330 335 332 332 333 331 331 330 327 321 313 318 316 312 317 316 315 318 319 320 320 320 319
333 331 331 331 331 331 329 327 327 332 333 332 331 332 330 330 329 327 322 321 320 319 319 320 319 317 319 319 319 319 320 319
332 330 330 330 331 328 330 329 325 332 332 331 331 330 330 328 328 327 324 323 322 320 322 321 320 318 319 319 319 319 320 319
329 328 327 327 329 326 328 330 328 325 326 327 328 329 327 328 328 326 325 324 323 322 323 322 319 318 318 318 318 319 319 319
326 326 325 326 327 325 327 327 328 326 323 324 326 326 325 326 327 326 325 325 324 324 323 320 318 317 318 318 318 318 319 320
324 324 324 324 324 324 324 325 327 328 326 324 326 325 324 324 325 326 326 325 324 323 321 319 318 317 317 317 317 318 318 319
325 323 323 324 323 324 325 325 326 327 325 326 325 324 323 323 322 322 323 323 322 321 319 318 318 317 317 317 317 317 318 318
323 323 324 323 324 325 325 326 325 325 324 324 323 323 322 321 320 319 319 318 317 317 318 318 317 316 315 315 315 315 316 317
325 322 323 323 323 322 323 323 324 323 322 321 321 320 319 319 319 317 316 316 315 316 317 317 317 316 314 314 315 315 314 314
325 325 323 324 324 324 321 321 322 321 320 319 319 318 317 317 317 316 316 317 316 317 318 318 318 315 315 318 321 317 315 315
324 325 324 324 322 322 321 321 320 319 318 316 315 316 317 315 314 316 318 318 320 321 320 319 320 317 317 321 324 324 321 317
323 324 323 324 324 323 321 321 321 320 320 319 320 319 319 319 319 319 319 321 322 320 320 319 322 322 321 320 321 322 324 324
324 323 322 323 323 323 323 321 320 321 320 320 320 317 315 317 317 321 321 321 321 319 321 323 323 323 323 323 321 321 321 322
325 323 322 322 323 323 323 320 320 320 320 319 319 318 316 317 320 321 322 322 322 322 322 322 323 323 324 323 323 322 321 322
324 324 323 322 323 323 323 321 322 320 321 319 319 319 319 318 320 321 322 322 322 322 323 323 324 324 324 324 323 322 323 323
324 323 323 323 322 323 322 321 320 320 320 320 318 319 318 318 317 319 321 322 323 323 324 325 324 324 324 325 324 323 322 321
Wind_Speed
10 9 10 16 25 26 22 23 25 28 44 44 43 40 37 35 33 33 30 30 28 27 26 26 26 26 25 22 20 16 16 18
8 8 7 12 19 21 21 30 47 48 43 45 44 42 39 38 34 32 29 29 29 28 27 25 26 26 24 21 19 15 17 17
5 7 9 11 13 16 24 27 39 44 46 48 44 37 37 36 30 31 30 30 31 29 27 25 24 26 25 23 14 13 15 16
5 4 6 9 13 11 14 23 28 32 44 48 39 37 34 30 31 30 31 30 30 28 26 25 20 19 19 13 5 11 14 15
7 6 4 5 9 10 12 14 24 42 43 44 35 36 34 32 33 30 27 28 24 25 26 19 17 17 13 8 12 10 14 15
8 6 7 7 7 8 13 16 20 33 42 38 39 31 30 29 30 29 27 24 25 24 20 17 15 15 9 11 11 11 14 14
5 6 7 6 7 11 14 20 23 25 31 32 35 31 27 29 30 29 28 25 24 23 19 17 15 14 12 12 10 9 13 14
5 6 7 10 8 8 13 19 32 33 27 29 29 29 28 26 28 29 28 26 24 22 19 18 15 14 13 12 10 12 11 13
6 7 9 9 8 11 12 16 24 34 39 37 31 28 29 21 26 27 27 26 23 20 19 17 15 14 13 12 11 11 11 11
6 7 10 8 9 10 14 18 26 33 43 43 35 35 27 27 23 23 24 25 23 20 19 17 15 14 15 13 12 11 11 10
7 8 6 3 5 15 17 24 29 34 43 41 38 35 27 22 24 22 22 23 20 19 17 17 16 15 14 12 11 10 11 11
9 7 6 7 12 18 17 25 22 41 41 41 39 32 29 23 21 21 23 21 20 17 17 14 14 13 12 11 10 10 11 13
11 10 9 15 15 21 21 22 32 35 37 40 38 32 29 23 23 23 22 22 24 19 16 14 10 10 9 7 9 11 13 13
12 12 13 10 12 15 22 29 27 31 33 32 30 30 30 28 27 23 20 21 19 18 17 14 10 14 11 12 6 10 16 19
13 13 14 13 13 18 27 27 28 29 29 29 29 27 26 25 22 20 19 20 19 20 19 16 14 16 14 8 3 5 6 18
16 14 15 16 18 19 25 29 29 28 32 33 31 31 28 25 20 22 23 20 20 20 15 20 17 13 10 14 14 11 3 2
19 18 16 17 19 20 23 24 22 21 25 28 27 28 32 28 27 22 23 19 18 16 20 19 16 14 16 13 11 14 16 12
19 21 21 20 20 21 23 26 25 23 22 23 24 23 30 33 29 23 19 19 16 20 19 18 17 18 18 16 16 13 13 15
20 22 22 22 20 22 24 24 25 30 29 28 26 25 28 32 31 24 22 20 19 20 20 19 20 23 19 18 19 21 21 22
25 24 24 24 25 23 26 27 21 24 29 31 32 29 30 30 34 26 24 21 21 22 21 19 22 22 21 20 22 22 24 25
Wind_Direction
235 254 256 220 216 219 222 250 273 211 175 168 166 165 162 153 149 151 152 146 141 140 145 148 148 148 144 132 133 120 128 122
231 233 235 214 229 224 215 217 231 215 176 166 164 163 157 152 156 155 155 144 140 142 145 146 147 147 141 137 123 124 124 124
216 215 206 203 220 238 232 231 225 222 175 165 161 158 154 158 155 158 155 148 143 142 144 143 145 141 138 128 129 129 130 123
231 200 193 190 209 213 234 235 210 219 169 160 157 159 158 157 156 159 158 150 145 142 141 138 132 140 140 133 154 137 125 131
214 196 180 197 208 207 175 203 250 198 157 157 161 158 160 155 152 155 153 150 142 139 139 138 146 148 151 143 138 153 134 133
213 209 214 195 193 174 179 210 241 169 160 160 158 156 158 153 153 155 151 156 149 149 150 150 151 153 151 139 158 147 137 139
197 206 214 199 170 180 158 171 174 149 149 151 153 156 156 155 159 160 163 164 159 157 155 155 158 155 149 149 161 148 143 148
230 218 206 177 169 173 183 171 175 164 168 159 162 153 153 165 163 164 169 164 164 164 158 158 160 153 153 157 162 159 158 151
196 220 192 190 197 189 191 192 196 181 178 171 167 157 160 170 166 168 168 165 163 161 158 157 161 158 158 165 166 166 158 155
179 192 208 204 203 230 224 212 200 199 177 173 168 159 164 166 172 172 163 161 164 162 161 162 163 168 167 174 174 172 166 171
165 182 173 182 247 256 236 205 194 178 159 163 165 161 161 174 172 168 161 161 162 163 156 162 169 178 172 175 182 180 181 188
160 159 149 125 115 120 127 186 176 144 151 154 157 161 169 170 162 159 159 153 152 157 159 169 172 176 176 179 188 192 198 204
161 155 147 131 113 104 101 100 132 138 148 157 162 157 163 165 164 162 156 154 155 157 151 159 179 167 167 177 203 210 214 214
169 160 158 153 129 125 108 110 117 131 145 158 162 170 168 170 158 158 153 151 160 159 170 160 187 185 179 190 201 209 224 221
174 164 166 156 143 124 127 129 125 135 149 165 180 187 176 168 162 169 170 182 181 180 184 172 195 202 213 234 233 245 198 211
166 167 174 164 162 156 151 149 156 164 166 169 181 184 170 164 179 193 191 190 192 187 202 195 219 208 214 239 258 273 279 263
169 171 174 172 172 170 166 164 165 162 166 175 177 176 189 188 213 205 201 195 207 196 209 212 221 232 235 203 236 251 255 260
174 173 177 182 183 182 175 172 174 172 174 176 177 180 188 195 212 208 204 206 206 210 214 213 222 232 241 250 245 251 256 246
182 179 178 184 185 184 184 175 180 181 181 184 183 186 189 200 206 200 205 209 213 216 217 219 225 237 235 242 250 251 253 264
182 185 181 182 188 187 187 192 177 179 190 197 196 199 204 207 212 206 217 213 219 224 224 226 234 239 240 242 249 255 261 262